Miscellaneous Local Product
Issued by NWS Hastings, NE

Home | Current Version | Previous Version | Graphics & Text | Print | Product List | Glossary On
Versions: 1 2 3 4 5 6 7 8 9 10 11 12 13 14 15 16 17 18 19 20 21 22 23 24 25 26 27 28 29 30 31 32 33 34 35 36 37 38 39 40 41 42 43 44 45 46 47 48 49 50
000
AXUS43 KGID 261602
MISGRI

GID CWA HOURLY WEATHER ROUNDUP
NATIONAL WEATHER SERVICE HASTINGS NE
1100 AM CDT THU MAR 26 2015

NOTE: "FAIR" INDICATES FEW OR NO CLOUDS BELOW 12,000 FEET WITH NO
SIGNIFICANT WEATHER AND/OR OBSTRUCTIONS TO VISIBILITY.

...SOUTH CENTRAL NEBRASKA...

CITY           SKY/WX    TMP DP  RH WIND       PRES   REMARKS
GRAND ISLAND   SUNNY     40  24  53 SW5       30.21F
HASTINGS       MOSUNNY   41  25  53 W7        30.20F
KEARNEY        PTSUNNY   39  23  52 SW8       30.20S WCI  34
ORD            PTSUNNY   40  23  50 SW9       30.17F WCI  34
YORK           SUNNY     37  25  60 CALM      30.23F
AURORA         SUNNY     39  26  59 W5        30.21F
LEXINGTON      CLOUDY    42  26  53 SW10      30.17F
HOLDREGE       PTSUNNY   41  24  52 SW9       30.19F
HEBRON         SUNNY     39  25  56 CALM      30.24F

...NEBRASKA PANHANDLE...

CITY           SKY/WX    TMP DP  RH WIND       PRES   REMARKS
CHADRON        CLOUDY    46  28  49 W21G28    30.13S
ALLIANCE       CLOUDY    49  27  42 NW25G33   30.11S
SCOTTSBLUFF    CLOUDY    42  29  59 W15G22    30.16F
SIDNEY         CLOUDY    51  24  34 NW24G32   30.14F

...WESTERN AND NORTH CENTRAL NEBRASKA...

CITY           SKY/WX    TMP DP  RH WIND       PRES   REMARKS
VALENTINE      CLOUDY    35  26  69 E3        30.08F
AINSWORTH      CLOUDY    38  26  61 S7        30.10S WCI  33
ONEILL         CLOUDY    40  25  53 SW7       30.17F
BROKEN BOW     CLOUDY    38  24  57 SW8       30.15F WCI  32
IMPERIAL         N/A     46  32  58 W15       30.15F
NORTH PLATTE   CLOUDY    42  24  49 S12       30.13F
MCCOOK         CLOUDY    44  30  57 SW10      30.18F

...EASTERN NEBRASKA...

CITY           SKY/WX    TMP DP  RH WIND       PRES   REMARKS
NORFOLK        SUNNY     40  22  48 VRB7      30.20F
SO SIOUX CITY  SUNNY     40  24  53 NW12      30.21F WCI  33
TEKAMAH        SUNNY     42  23  46 W17G26    30.22F
COLUMBUS       SUNNY     39  19  45 W6        30.24F WCI  35
ALBION         MOSUNNY   38  22  52 CALM      30.20F
OMAHA EPPLEY   MOSUNNY   41  24  51 W9        30.23F
OFFUTT AFB     SUNNY     41  22  47 W8        30.22F
MILLARD        SUNNY     41  22  48 NW7       30.23S
LINCOLN        SUNNY     43  23  45 N5        30.24F
NEBRASKA CITY  SUNNY     41  23  49 N9        30.23F
BEATRICE       SUNNY     40  28  61 NW6       30.24F
FALLS CITY     SUNNY     42  27  55 N9        30.23F

...NORTHERN KANSAS...

CITY           SKY/WX    TMP DP  RH WIND       PRES   REMARKS
GOODLAND       PTSUNNY   50  34  54 W13       30.18F
HILL CITY      MOSUNNY   44  32  62 SW8       30.23F
NORTON         SUNNY     39  25  56 S10       30.19F WCI  32
PHILLIPSBURG   SUNNY     43  30  61 S7        30.23F
SMITH CENTER   SUNNY     39  27  60 SW5       30.23F
BELOIT         SUNNY     45  25  45 SW3       30.24F
HAYS           SUNNY     43  27  52 S5        30.25F
RUSSELL        SUNNY     42  29  59 VRB3      30.23F
CONCORDIA      SUNNY     42  26  53 W3        30.24F
SALINA         SUNNY     42  31  64 CALM      30.27F
TOPEKA         SUNNY     43  28  55 N8        30.24F



USA.gov is the U.S. government's official web portal to all federal, state and local government web resources and services.